Regional Weather Roundup
Issued by NWS

Home | Current Version | Previous Version | Text Only | Print | Product List | Glossary Off
Versions: 1 2 3 4 5 6 7 8 9 10 11 12 13 14 15 16 17 18 19 20 21 22 23 24 25 26 27 28 29 30 31 32 33 34 35 36 37 38 39 40 41 42 43 44 45 46 47 48 49 50

000
ASUS45 KSLC 271910
RWRUT

UTAH REGIONAL WEATHER ROUNDUP
NATIONAL WEATHER SERVICE SALT LAKE CITY UT
100 PM MDT MON APR 27 2015

UTZ001>011-023>025-272000-

NORTHERN UTAH

CITY           SKY/WX    TMP DP  RH WIND       PRES   REMARKS
BRIGHAM CITY   SUNNY     57  33  39 SW5       30.24F
HILL AFB       MOSUNNY   56  36  45 VRB5      30.24F
LOGAN          SUNNY     54  38  54 VRB5      30.25F
OGDEN          SUNNY     58  37  45 VRB6      30.23F
PROVO AIRPORT  MOSUNNY   55  36  47 SW7       30.23F
SALT LAKE CITY MOSUNNY   57  38  48 NW9       30.23F
VERNAL         PTSUNNY   59  34  39 NE18G31   30.19S
WENDOVER       SUNNY     57  19  23 E8        30.28F
HEBER CITY     SUNNY     54  34  47 SE5       30.24F
WEST JORDAN    SUNNY     55  41  58 NW15G22   30.24F

$$

UTZ012>022-026-027-272000-

SOUTHERN/CENTRAL UTAH

CITY           SKY/WX    TMP DP  RH WIND       PRES   REMARKS
BLANDING       MOSUNNY   60  35  38 NE6       30.16S
BRYCE CANYON   SUNNY     51  28  41 VRB3      30.20S
CEDAR CITY     MOSUNNY   55  32  41 N9        30.19F
DELTA          PTSUNNY   55  31  39 CALM      30.24F
HANKSVILLE     SUNNY     66  32  28 NE13      30.13F
MILFORD        SUNNY     57  28  33 NE20G26   30.22F
MOAB/CYNLANDS  PTSUNNY   64  38  38 NE13G21   30.10S
PRICE          NOT AVBL
ST GEORGE      CLEAR     66  30  26 W7        30.11F
KANAB          SUNNY     63  32  31 NW6       30.13F

$$

REGIONAL REPORTS     COLORADO/ARIZONA

CITY           SKY/WX    TMP DP  RH WIND       PRES   REMARKS
CRAIG, CO      PTSUNNY   55  39  54 W9        30.19S
GRAND JUNCTION PTSUNNY   60  40  47 NW8       30.11F
RIFLE          MOSUNNY   59  36  42 VRB3      30.12F
MONTROSE       MOSUNNY   56  41  57 NW8       30.14F
CORTEZ         PTSUNNY   60  37  42 VRB6      30.07F
PAGE, AZ       NOT AVBL
GRAND CANYON   SUNNY     55  31  39 NE13      30.15S
KINGMAN        SUNNY     69  28  21 NE9       30.05F
FLAGSTAFF      SUNNY     52  34  50 NE20G26   30.12R

$$

REGIONAL REPORTS    NEVADA/IDAHO/WYOMING

CITY           SKY/WX    TMP DP  RH WIND       PRES   REMARKS
LAS VEGAS, NV  SUNNY     73  20  13 MISG      30.04F
ELY            SUNNY     52  19  27 NW6       30.25F
ELKO           SUNNY     55  16  21 CALM      30.28F
POCATELLO, ID  MOSUNNY   55  26  32 VRB6      30.30F
BURLEY         SUNNY     55  22  27 VRB3      30.29F
EVANSTON, WY   CLOUDY    45  34  65 NE6       30.28S
ROCK SPRINGS   PTSUNNY   46  36  68 NE14      30.27F
KEMMERER       PTSUNNY   46  36  66 E8        30.28F

$$



USA.gov is the U.S. government's official web portal to all federal, state and local government web resources and services.